Weather History for Chester, SC

Change the Weather History Date:

Thursday, November 17, 2011

  Actual Average (KUZA) Record (KUZA)
Temperature  
Mean Temperature 53 °F -  
Max Temperature 64 °F 62 °F 85 °F (1958)
Min Temperature 42 °F 41 °F 25 °F (2007)
Degree Days  
Heating Degree Days 12    
Growing Degree Days 3 (Base 50)    
Moisture  
Dew Point 49 °F    
Average Humidity 86    
Maximum Humidity 100    
Minimum Humidity 50    
Precipitation  
Precipitation 0.20 in - - ()
Sea Level Pressure  
Sea Level Pressure 29.98 in    
Wind  
Wind Speed 8 mph (North)    
Max Wind Speed 17 mph    
Max Gust Speed 22 mph    
Visibility 9 miles    
Events Rain , Thunderstorm    
Averages and records for this station are not official NWS values.
T = Trace of Precipitation, MM = Missing Value Source: NWS Daily Summary

Daily Weather History Graph

Daily Weather History Graph

Search for Another Location

Airport:

Trip Planner

Search our weather history database for the weather conditions in past years. The results will help you decide how hot, cold, wet, or windy it might be!

Date:

Astronomy

Nov. 17, 2011 Rise Set
Actual Time 7:00 AM EST 5:18 PM EST
Civil Twilight 6:33 AM EST 5:45 PM EST
Nautical Twilight 6:02 AM EST 6:16 PM EST
Astronomical Twilight 5:32 AM EST 6:46 PM EST
Moon 11:32 PM EST (11/17) 12:12 PM EST (11/17)
Length of Visible Light 11h 11m
Length of Day
10h 18m
Waning Gibbous, 60% of the Moon is Illuminated
Nov 17
Waning Gibbous
Nov 18
Last Quarter
Nov 25
New
Dec 2
First Quarter
Dec 10
Full

Hourly Weather History & Observations

Time (EST) Temp. Windchill Dew Point Humidity Pressure Visibility Wind Dir Wind Speed Gust Speed Precip Events Conditions
12:15 AM 64.4 °F - 64.4 °F 100% 29.83 in 7.0 mi SSW 5.8 mph - N/A   Overcast
12:35 AM 64.4 °F - 64.4 °F 100% 29.83 in 7.0 mi SSW 3.5 mph - N/A   Overcast
12:55 AM 64.4 °F - 64.4 °F 100% 29.83 in 7.0 mi SSW 4.6 mph - N/A   Overcast
1:15 AM 64.4 °F - 64.4 °F 100% 29.82 in 7.0 mi Calm Calm - N/A   Overcast
1:35 AM 64.4 °F - 62.6 °F 94% 29.85 in 10.0 mi NNE 17.3 mph 21.9 mph N/A Rain Rain
1:55 AM 55.4 °F - 55.4 °F 100% 29.85 in 10.0 mi NE 12.7 mph 18.4 mph N/A Rain Rain
2:15 AM 55.4 °F - 55.4 °F 100% 29.85 in 10.0 mi NNE 11.5 mph 19.6 mph N/A Rain Light Rain
2:35 AM 55.4 °F - 55.4 °F 100% 29.86 in 10.0 mi NNE 11.5 mph - N/A Rain Light Rain
2:55 AM 55.4 °F - 55.4 °F 100% 29.85 in 10.0 mi NNE 10.4 mph 16.1 mph N/A   Overcast
3:15 AM 55.4 °F - 55.4 °F 100% 29.86 in 10.0 mi NNE 6.9 mph - N/A   Overcast
3:35 AM 55.4 °F - 55.4 °F 100% 29.86 in 10.0 mi NE 8.1 mph - N/A   Overcast
3:55 AM 55.4 °F - 55.4 °F 100% 29.86 in 10.0 mi NNE 8.1 mph - N/A   Overcast
4:15 AM 55.4 °F - 55.4 °F 100% 29.86 in 10.0 mi North 8.1 mph - N/A Thunderstorm Overcast
4:35 AM 55.4 °F - 53.6 °F 94% 29.85 in 10.0 mi NE 11.5 mph - N/A   Overcast
4:55 AM 55.4 °F - 53.6 °F 94% 29.86 in 10.0 mi North 6.9 mph - N/A   Overcast
5:15 AM 55.4 °F - 53.6 °F 94% 29.86 in 10.0 mi North 8.1 mph - N/A   Overcast
5:35 AM 55.4 °F - 53.6 °F 94% 29.86 in 10.0 mi NNE 6.9 mph - N/A   Overcast
5:55 AM 53.6 °F - 51.8 °F 94% 29.86 in 10.0 mi NNE 10.4 mph - N/A   Overcast
6:15 AM 53.6 °F - 51.8 °F 94% 29.86 in 7.0 mi North 9.2 mph - 0.03 in Rain , Thunderstorm Rain
6:35 AM 53.6 °F - 51.8 °F 94% 29.86 in 10.0 mi North 6.9 mph - 0.04 in Rain Light Rain
6:55 AM 51.8 °F - 51.8 °F 100% 29.87 in 10.0 mi North 10.4 mph - 0.04 in Rain Light Rain
7:15 AM 51.8 °F - 51.8 °F 100% 29.92 in 10.0 mi NW 11.5 mph 16.1 mph N/A Rain Rain
7:35 AM 50.0 °F - 50.0 °F 100% 29.94 in 5.0 mi NNW 9.2 mph 18.4 mph 0.12 in Rain Rain
7:55 AM 50.0 °F - 50.0 °F 100% 29.93 in 10.0 mi NNE 11.5 mph 19.6 mph 0.14 in Rain Light Rain
8:15 AM 50.0 °F - 50.0 °F 100% 29.91 in 10.0 mi NNE 13.8 mph - 0.01 in Rain Light Rain
8:35 AM 50.0 °F - 50.0 °F 100% 29.93 in 10.0 mi North 10.4 mph - 0.01 in Rain Light Rain
8:55 AM 50.0 °F - 50.0 °F 100% 29.95 in 7.0 mi North 10.4 mph - 0.01 in   Overcast
9:15 AM 51.8 °F - 50.0 °F 94% 29.95 in 7.0 mi NNE 8.1 mph - N/A   Overcast
9:35 AM 51.8 °F - 51.8 °F 100% 29.98 in 7.0 mi NNW 9.2 mph - N/A   Overcast
9:55 AM 51.8 °F - 51.8 °F 100% 29.98 in 7.0 mi North 6.9 mph - N/A   Overcast
10:15 AM 51.8 °F - 51.8 °F 100% 29.99 in 5.0 mi North 6.9 mph - N/A   Overcast
10:35 AM 51.8 °F - 51.8 °F 100% 30.01 in 7.0 mi NNW 8.1 mph - N/A   Overcast
10:55 AM 53.6 °F - 51.8 °F 94% 30.01 in 5.0 mi NNW 6.9 mph - N/A Thunderstorm Overcast
11:15 AM 53.6 °F - 51.8 °F 94% 30.02 in 7.0 mi North 9.2 mph - N/A   Overcast
11:35 AM 53.6 °F - 50.0 °F 88% 30.02 in 7.0 mi NNW 8.1 mph - N/A   Overcast
11:55 AM 53.6 °F - 50.0 °F 88% 30.02 in 7.0 mi NNW 4.6 mph - N/A   Overcast
12:15 PM 53.6 °F - 51.8 °F 94% 30.02 in 7.0 mi NNW 4.6 mph - N/A Rain Light Rain
12:35 PM 51.8 °F - 51.8 °F 100% 30.03 in 4.0 mi NW 4.6 mph - N/A Rain Light Rain
12:55 PM 50.0 °F - 50.0 °F 100% 30.03 in 5.0 mi NNW 6.9 mph - 0.01 in Rain Light Rain
1:15 PM 50.0 °F - 50.0 °F 100% 30.03 in 7.0 mi North 10.4 mph - N/A   Overcast
1:35 PM 50.0 °F - 48.2 °F 94% 30.04 in 10.0 mi NW 4.6 mph - N/A   Overcast
1:55 PM 51.8 °F - 50.0 °F 94% 30.03 in 10.0 mi NNW 5.8 mph - N/A   Mostly Cloudy
2:15 PM 53.6 °F - 46.4 °F 77% 30.04 in 10.0 mi NNW 6.9 mph - N/A   Scattered Clouds
2:35 PM 53.6 °F - 46.4 °F 77% 30.04 in 10.0 mi NNW 9.2 mph - N/A   Scattered Clouds
2:55 PM 55.4 °F - 44.6 °F 67% 30.05 in 10.0 mi NW 8.1 mph - N/A   Clear
3:15 PM 55.4 °F - 41.0 °F 58% 30.06 in 10.0 mi NW 10.4 mph - N/A   Clear
3:35 PM 55.4 °F - 37.4 °F 51% 30.07 in 10.0 mi NW 9.2 mph - N/A   Clear
3:55 PM 53.6 °F - 37.4 °F 54% 30.08 in 10.0 mi NW 10.4 mph 17.3 mph N/A   Clear
4:15 PM 53.6 °F - 35.6 °F 51% 30.10 in 10.0 mi NW 8.1 mph 17.3 mph N/A   Clear
4:35 PM 51.8 °F - 35.6 °F 54% 30.12 in 10.0 mi NNW 12.7 mph 19.6 mph N/A   Clear
4:55 PM 51.8 °F - 33.8 °F 50% 30.14 in 10.0 mi NNW 12.7 mph 19.6 mph N/A   Clear
5:15 PM 50.0 °F - 33.8 °F 54% 30.16 in 10.0 mi NNW 8.1 mph - N/A   Scattered Clouds
5:35 PM 48.2 °F - 32.0 °F 54% 30.18 in 10.0 mi North 11.5 mph - N/A   Mostly Cloudy
5:55 PM 46.4 °F 39.8 °F 30.2 °F 53% 30.18 in 10.0 mi North 16.1 mph 20.7 mph N/A   Scattered Clouds
6:15 PM 46.4 °F 42.4 °F 28.4 °F 50% 30.20 in 7.0 mi NNW 8.1 mph 16.1 mph N/A   Clear
6:35 PM 44.6 °F 40.7 °F 28.4 °F 53% 30.22 in 10.0 mi NNW 6.9 mph - N/A   Clear
6:55 PM 42.8 °F 40.1 °F 30.2 °F 61% 30.24 in 10.0 mi North 4.6 mph - N/A   Clear
7:15 PM 42.8 °F 39.3 °F 30.2 °F 61% 30.24 in 7.0 mi North 5.8 mph - N/A   Clear
7:35 PM 41.0 °F 38.0 °F 30.2 °F 65% 30.25 in 10.0 mi NNW 4.6 mph - N/A   Clear
7:55 PM 41.0 °F 38.0 °F 30.2 °F 65% 30.27 in 10.0 mi North 4.6 mph - N/A   Clear
8:35 PM 39.2 °F 34.2 °F 30.2 °F 70% 30.29 in 10.0 mi North 6.9 mph - N/A   Clear
8:55 PM 39.2 °F 37.0 °F 30.2 °F 70% 30.30 in 10.0 mi NNE 3.5 mph - N/A   Clear
9:35 PM 37.4 °F - 30.2 °F 75% 30.32 in 10.0 mi Calm Calm - N/A   Clear
9:55 PM 35.6 °F 30.7 °F 28.4 °F 75% 30.32 in 7.0 mi ENE 5.8 mph - N/A   Clear
10:15 PM 37.4 °F 34.9 °F 26.6 °F 65% 30.32 in 10.0 mi NE 3.5 mph - N/A   Clear
10:35 PM 35.6 °F 32.8 °F 26.6 °F 70% 30.32 in 10.0 mi North 3.5 mph - N/A   Clear
11:35 PM 32.0 °F 27.5 °F 28.4 °F 87% 30.34 in 7.0 mi North 4.6 mph - N/A   Clear
11:55 PM 32.0 °F - 28.4 °F 87% 30.34 in 10.0 mi Calm Calm - N/A   Clear